User: anonymous
Location: eljas
(40.1958°N, 6.8661°W)
Time: 00:31:51
(UTC+02:00)
Language:

Okean O Rocket - Orbit

View from above orbital plane
View from above orbital plane
View from above satellite
View from above satellite

Ground track
Ground track

The orbit data is extracted from the following two-line orbital elements,

1 25861U 99039B   14208.99795535  .00000230  00000-0  39210-4 0  6866
2 25861 097.9526 167.4072 0014764 240.6338 161.1533 14.77729890809895
Epoch (UTC): 27 July 2014 23:57:03
Eccentricity: 0.0014764
inclination: 97.9526°
perigee height: 626 km
apogee height: 647 km
right ascension of ascending node: 167.4072°
argument of perigee: 240.6338°
revolutions per day: 14.77729890
mean anomaly at epoch: 161.1533°
orbit number at epoch: 80989

The dashed part of the orbit path shows where the satellite is in the earth's shadow,  

DLR